Regional Weather Roundup
Issued by NWS Cleveland, OH

Home | Current Version | Previous Version | Graphics & Text | Print | Product List | Glossary On
Versions: 1 2 3 4 5 6 7 8 9 10 11 12 13 14 15 16 17 18 19 20 21 22 23 24 25 26 27 28 29 30 31 32 33 34 35 36 37 38 39 40 41 42 43 44 45 46 47 48 49 50
000
ASUS41 KCLE 261102
RWRCLE
OHIO REGIONAL WEATHER ROUNDUP
NATIONAL WEATHER SERVICE CLEVELAND, OH
700 AM EDT MON JUN 26 2017

NOTE: "FAIR" INDICATES FEW OR NO CLOUDS BELOW 12,000 FEET WITH NO
SIGNIFICANT WEATHER AND/OR OBSTRUCTIONS TO VISIBILITY.

OHZ001>008-015>018-024>027-034-035-043-044-261200-
   NORTHWEST OHIO

CITY           SKY/WX    TMP DP  RH WIND       PRES   REMARKS
DEFIANCE       CLEAR     56  50  80 CALM      30.09R
FINDLAY        MOCLDY    57  49  74 SW9       30.08R
TOLEDO EXPRESS CLEAR     56  52  86 W9        30.06R
TOLEDO EXEC    PTCLDY    59  52  77 W6        30.07R
LIMA           CLOUDY    56  51  84 SW8       30.10R
$$

OHZ009>014-019>023-028>033-038-089-261200-
   NORTHEAST OHIO

CITY           SKY/WX    TMP DP  RH WIND       PRES   REMARKS
CLE-HOPKINS    PTCLDY    58  48  69 SW7       30.07R
CLE-LAKEFRONT  PTSUNNY   61  48  62 SW10      30.04R
CUY CO. ARPT   PTSUNNY   59  48  67 SW7       30.04
LORAIN-ELYRIA  CLEAR     55  45  68 W7        30.06R
ASHTABULA      CLOUDY    56  51  84 W6        30.06R
AKRON-CANTON   CLEAR     55  46  71 SW6       30.07R
WOOSTER        CLEAR     54  49  83 SW5       30.08S
MANSFIELD      CLEAR     56  48  74 W8        30.08R
YOUNGSTOWN     MOSUNNY   54  48  80 S6        30.06R
$$

OHZ042-051>053-060>062-070>072-077>081-261200-
  SOUTHWEST OHIO

CITY           SKY/WX    TMP DP  RH WIND       PRES   REMARKS
CINC-COVINGTON CLEAR     53  50  89 W5        30.15R
CINC-LUNKEN    CLEAR     60  50  69 SW5       30.16R
HAMILTON       CLEAR     56  53  90 W3        30.16R
DAYTON         PTCLDY    56  49  77 W10       30.14R
WRIGHT-PAT AFB NOT AVBL
DAYTON GENERAL CLEAR     57  49  74 W5        30.13R
WILMINGTON     PTCLDY    57  51  80 W8        30.13R
$$

OHZ036-037-039>041-045>050-054>059-063>069-073>076-082>088-261200-
  CENTRAL AND SOUTHEAST OHIO

CITY           SKY/WX    TMP DP  RH WIND       PRES   REMARKS
COLUMBUS       PTCLDY    58  52  80 SW5       30.10R
OSU AIRPORT    CLEAR     56  51  84 W8        30.11R
BOLTON FIELD   NOT AVBL
RICKENBACK AFB PTCLDY    55  52  92 CALM      30.11S
NEWARK         CLEAR     53  51  93 CALM      30.10R
MARION         CLEAR     57  49  74 W9        30.09S
LANCASTER      PTCLDY    54  52  93 CALM      30.11S
ZANESVILLE     PTCLDY    53  49  86 CALM      30.10S
NEW PHILLY     NOT AVBL
$$



USA.gov is the U.S. government's official web portal to all federal, state and local government web resources and services.